Regional Weather Roundup
Issued by NWS

Home | Current Version | Previous Version | Text Only | Print | Product List | Glossary On
Versions: 1 2 3 4 5 6 7 8 9 10 11 12 13 14 15 16 17 18 19 20 21 22 23 24 25 26 27 28 29 30 31 32 33 34 35 36 37 38 39 40 41 42 43 44 45 46 47 48 49 50
000
ASHW40 PHFO 211212
RWRHI

WEATHER ROUNDUP FOR HAWAII
NATIONAL WEATHER SERVICE HONOLULU HI
200 AM HST TUE NOV 21 2017

THIS IS AN AUTOMATED REPORT THAT HAS NOT BEEN QUALITY CONTROLLED.

NOTE..."FAIR" INDICATES FEW OR NO CLOUDS BELOW 12,000 FEET WITH NO
SIGNIFICANT WEATHER AND/OR OBSTRUCTIONS TO VISIBILITY.

* - THESE SITES REPORT LIMITED FIELDS
# - BUOY DATA PROVIDED BY PACIFIC ISLANDS OCEAN OBSERVING SYSTEM.

HIZ001>004-211300-
KAUAI-NIIHAU-

CITY           SKY/WX    TMP DP  RH WIND       PRES   REMARKS
LIHUE APT      CLEAR     67  60  78 N9        29.95F
PORT ALLEN*      N/A     63 N/A N/A NE8         N/A
POIPU*           N/A     68 N/A N/A N5G12       N/A
PRINCEVILLE*     N/A     72 N/A N/A N5          N/A
KOKOLE POINT*  NOT AVBL
MOLOAA DAIRY*    N/A     68  59  73 NW2G8       N/A
WAIMEA HTS*    NOT AVBL
PUU OPAE*      NOT AVBL
PUU LUA*       NOT AVBL
MAKAHA RIDGE*  NOT AVBL
$$

HIZ005>011-211300-
OAHU-

CITY           SKY/WX    TMP DP  RH WIND       PRES   REMARKS
HONOLULU       MOCLDY    71  60  68 NW3       29.93F
KALAELOA       PTCLDY    69  59  70 N5        29.94F
KANEOHE MCB    CLOUDY    75  58  55 N12       29.90F
WHEELER FIELD  FAIR      61  58  91 NW3       29.96F
BELLOWS*       NOT AVBL
KAHUKU*        NOT AVBL
WHEELER*       NOT AVBL
WAIANAE HARBOR NOT AVBL
DILLINGHAM*    NOT AVBL
KAHUKU TRN*      N/A     77  63  61 S3G16       N/A
KAWAILOA*        N/A     64  54  68 NE6G12      N/A
KII*             N/A     73  57  56 N12G18      N/A
MAKUA RANGE*     N/A     72  55  56 NW7G18      N/A
OAHU FOREST NW NOT AVBL
SCHOFIELD BRK*   N/A     63  57  82 CALM        N/A
SCHOFIELD S*   NOT AVBL
WAIANAE VLY*   NOT AVBL
KUAOKALA*      NOT AVBL
HONOULIUULI*   NOT AVBL
MOKUOLOE IS*   NOT AVBL
PALEHUA*       NOT AVBL
WAIAWA PHB*    NOT AVBL
$$

HIZ012>013-211300-
MOLOKAI-

CITY           SKY/WX    TMP DP  RH WIND       PRES   REMARKS
MOLOKAI AIRPT  MOCLDY    70  59  68 N10       29.94F
KALAUPAPA      NOT AVBL
MAKAPULAPAI*   NOT AVBL
MOLOKAI 1*     NOT AVBL
PUU ALII*      NOT AVBL
$$

HIZ016-211300-
KAHOOLAWE-

CITY           SKY/WX    TMP DP  RH WIND       PRES   REMARKS
KAHOOLAWE*     NOT AVBL
HAKIOAWA*      NOT AVBL
HONOKANAIA*    NOT AVBL
KANELOA*         N/A     66  61  82 N14G23    29.97F
KEALIALALO*    NOT AVBL
LUA MAKIKA*    NOT AVBL
$$

HIZ014>015-211300-
LANAI-

CITY           SKY/WX    TMP DP  RH WIND       PRES   REMARKS
LANAI CITY     FAIR      64  57  78 NE12      29.96F
LANAI 1*       NOT AVBL
$$

HIZ017>028-211300-
MAUI-

CITY           SKY/WX    TMP DP  RH WIND       PRES   REMARKS
KAHULUI        CLOUDY    68  64  87 CALM      29.92F
KAPALUA-W MAUI NOT AVBL
HANA AIRPORT   MOCLDY   N/A N/A N/A SW7       29.94F
HANA*            N/A     66 N/A N/A W3G9        N/A
HALEAKALA SUMM   N/A     37  16  41 NW17        N/A  WCI  28
MAALAEA BAY*   NOT AVBL
HALEAKALA*     NOT AVBL
KAUPO GAP*     NOT AVBL
KULA 1*          N/A    N/A N/A N/A E5          N/A
$$

HIZ023>026-211300-
BIG ISLAND OF HAWAII COAST AND LOWER SLOPES-

CITY           SKY/WX    TMP DP  RH WIND       PRES   REMARKS
KAILUA KONA    CLEAR     68  55  63 NE6       29.89F
HILO           MOCLDY    66  60  81 S3        29.91F
HONOKAA*         N/A     63 N/A N/A VRB1        N/A
KAWAIHAE MWT*    N/A     72 N/A N/A N2          N/A
KAWAIHAE*      NOT AVBL
SOUTH POINT*     N/A     63 N/A N/A W8          N/A
UPOLU AIRPORT* NOT AVBL
KAMUELA*       CLOUDY    55  55 100 CALM      30.00F
HAKALAU*         N/A     37  34  87 W5G12       N/A
KALOKO-HONOKO* NOT AVBL
PALI 2*          N/A     55  48  76 S6          N/A
KEALAKOMO*       N/A     72  59  64 NW8G18      N/A
KAUPULEHU*     NOT AVBL
KAPAPALA*        N/A     55  55 100 NW7         N/A
LOWER KAHUKU*  NOT AVBL
PUHE CS*       NOT AVBL
PUHO CS*       NOT AVBL
PTA KEAMUKU*     N/A     54  48  82 E10         N/A
WAIKOLOA*      NOT AVBL
$$

HIZ027>028-211300-
BIG ISLAND OF HAWAII INTERIOR AND SUMMMITS-

CITY           SKY/WX    TMP DP  RH WIND       PRES   REMARKS
BRADSHAW FIELD CLOUDY    38  33  82 SE3       30.16F
MK VISITOR CEN   N/A     41  -9  11 NW7         N/A
MAUNA KEA*       N/A     28 -13  16 SW53        N/A  WCI   9
MAUNA LOA*     NOT AVBL
MAUNA LOA 1*   NOT AVBL
PTA KIPUKA*      N/A     66  63  88 W5          N/A
PTA RANGE 17*    N/A     43  37  81 W5          N/A
PTA WEST*        N/A     46  39  76 SE12        N/A
NENE CABIN*    NOT AVBL
AHUMOA*        NOT AVBL
PTA PORTABLE*  NOT AVBL
PUU MALI*        N/A     45 -13   8 S8          N/A
$$

HIC003-211300-
NORTHWEST ISLANDS-

CITY           SKY/WX    TMP DP  RH WIND       PRES   REMARKS
MIDWAY ISLAND  CLOUDY    72  63  73 E24       30.19F
MIDWAY NOS*    NOT AVBL
FRENCH FRIGATE NOT AVBL
$$

PHZ110>124-180-211300-
BUOY REPORTS

STATION/POSITION TIME  TEMP    WIND        PRES    WAVE   SWELL
                       AIR SEA DIR/SP/G            HT/PER HT/DIR
                 (UTC) (F)     (DEG/KT/KT) (MB)    (FT/S) (FT/D)
BUOY 51001       1150   72 77   40/ 14/ 19 1015.8F  11/11  10/ 20
BUOY 51101       1150   73 77   20/ 17/ 21 1015.9F  12/11  10/ 20
BUOY 51100       NOT AVBL
BUOY 51002       1150   77 80   30/ 10/ 14 1012.0F   7/12   7/ 10
BUOY 51003       1150   76 80   40/ 14/ 17 1012.8F   8/12   7/360
BUOY 51004       1150   77 80   40/  6/ 10 1012.3F   9/13   8/360
WAIMEA BAY#      1132      77                N/A    10/12   7/ 10
MOKAPU POINT#    1134      78                N/A    10/12   8/ 10
LANAI#           NOT AVBL
BARBERS PT 2#    NOT AVBL
PAUWELA#         NOT AVBL
HILO#            1157      79                N/A    12/13  10/360
KANEOHE BAY#     NOT AVBL
KANEOHE BAY 2#   NOT AVBL
HANALEI#         1152      79                N/A    10/12   7/ 10
KAHULUI HARBOR   1142   69 78  150/  1/  2 1013.3F
HONOLULU HARBOR  1142   72 79   60/  2/  4 1014.3F
PEARL HARBOR#    1130      79                N/A     1/13   2/160
KILO NALU        NOT AVBL
HILO HARBOR      1142   69 78  200/  3/  4 1012.6F
MOKUOLOE         1136   74 76   20/ 12/ 15 1013.6F
NAWILIWILI       1142   65 79  250/  7/  8 1013.9F
WHOTS BUOY       NOT AVBL
BUOY 51028       NOT AVBL
$$

......................KEY........................................
  SKY/WX - SKY CONDITIONS/PRESENT WEATHER
  TMP    - TEMPERATURE IN FAHRENHEIT
  DWPT   - DEWPOINT IN FAHRENHEIT
  RH     - RELATIVE HUMIDITY IN PERCENT
  WIND   - DIRECTION AND SPEED /MPH FOR ISLANDS...KTS FOR BUOYS/
  PRES   - MEAN SEA LEVEL PRESSURE IN INCHES OF HG
  VSB    - VISIBILITY IN MILES
  HX     - HEAT INDEX
  WCI    - WIND CHILL INDEX
  VRB    - VARIABLE WIND DIRECTION
  N/A    - NOT AVAILABLE




USA.gov is the U.S. government's official web portal to all federal, state and local government web resources and services.